TimePST,TemperatureF,Dew PointF,Humidity,Sea Level PressureIn,VisibilityMPH,Wind Direction,Wind SpeedMPH,Gust SpeedMPH,PrecipitationIn,Events,Conditions,WindDirDegrees,DateUTC
12:54 AM,52.0,48.9,89,29.86,10.0,SSE,3.5,-,N/A,,Clear,160,2014-03-02 08:54:00
1:54 AM,52.0,48.0,86,29.88,10.0,East,4.6,-,N/A,,Overcast,100,2014-03-02 09:54:00
2:54 AM,54.0,50.0,86,29.89,10.0,Calm,Calm,-,N/A,,Overcast,0,2014-03-02 10:54:00
3:54 AM,54.0,50.0,86,29.88,10.0,Calm,Calm,-,N/A,,Overcast,0,2014-03-02 11:54:00
4:54 AM,55.9,51.1,84,29.92,10.0,Calm,Calm,-,N/A,,Overcast,0,2014-03-02 12:54:00
5:54 AM,55.0,51.1,86,29.94,10.0,East,6.9,-,N/A,,Overcast,100,2014-03-02 13:54:00
6:30 AM,55.4,51.8,88,29.92,10.0,Calm,Calm,-,N/A,,Overcast,0,2014-03-02 14:30:00
6:54 AM,55.9,51.1,84,29.96,10.0,Calm,Calm,-,N/A,,Overcast,0,2014-03-02 14:54:00
7:14 AM,57.2,51.8,82,29.94,10.0,Variable,5.8,-,N/A,,Overcast,0,2014-03-02 15:14:00
7:52 AM,57.2,51.8,82,29.97,10.0,South,13.8,18.4,N/A,,Overcast,180,2014-03-02 15:52:00
7:54 AM,57.9,51.1,78,30.01,10.0,South,12.7,18.4,N/A,,Overcast,170,2014-03-02 15:54:00
8:54 AM,57.9,52.0,81,30.04,10.0,South,8.1,17.3,N/A,,Mostly Cloudy,170,2014-03-02 16:54:00
9:54 AM,57.0,54.0,89,30.08,5.0,South,5.8,-,N/A,,Overcast,180,2014-03-02 17:54:00
10:54 AM,57.0,53.1,87,30.10,3.0,South,11.5,-,0.00,Rain,Light Rain,190,2014-03-02 18:54:00
11:30 AM,57.2,53.6,88,30.08,1.8,SSW,12.7,19.6,0.01,Rain,Light Rain,200,2014-03-02 19:30:00
11:44 AM,57.2,53.6,88,30.08,2.0,SSW,11.5,-,0.01,Rain,Light Rain,200,2014-03-02 19:44:00
11:54 AM,57.0,54.0,89,30.12,2.5,SSW,10.4,21.9,0.01,Rain,Light Rain,200,2014-03-02 19:54:00
12:05 PM,57.2,55.4,94,30.08,3.0,SSW,10.4,-,0.01,Rain,Light Rain,200,2014-03-02 20:05:00
12:16 PM,57.2,53.6,88,30.08,2.5,SSW,10.4,-,0.01,Rain,Light Rain,210,2014-03-02 20:16:00
12:25 PM,57.2,53.6,88,30.08,5.0,SSW,16.1,21.9,0.01,,Overcast,200,2014-03-02 20:25:00
12:37 PM,57.2,53.6,88,30.08,9.0,SSW,11.5,19.6,0.01,,Overcast,200,2014-03-02 20:37:00
12:45 PM,57.2,53.6,88,30.08,10.0,SSW,11.5,19.6,0.01,,Overcast,210,2014-03-02 20:45:00
12:54 PM,57.9,54.0,87,30.12,10.0,SW,13.8,18.4,0.01,,Overcast,220,2014-03-02 20:54:00
1:08 PM,57.2,53.6,88,30.09,10.0,SSW,11.5,-,N/A,,Overcast,200,2014-03-02 21:08:00
1:54 PM,59.0,54.0,83,30.13,10.0,SW,8.1,17.3,N/A,,Overcast,220,2014-03-02 21:54:00
2:09 PM,57.2,53.6,88,30.10,10.0,SSW,9.2,16.1,N/A,,Overcast,210,2014-03-02 22:09:00
2:23 PM,57.2,53.6,88,30.10,10.0,SW,9.2,-,N/A,,Overcast,230,2014-03-02 22:23:00
2:52 PM,57.2,53.6,88,30.11,10.0,SSW,8.1,-,N/A,,Overcast,210,2014-03-02 22:52:00
2:54 PM,57.9,53.1,84,30.14,10.0,SW,8.1,-,N/A,,Overcast,230,2014-03-02 22:54:00
3:20 PM,59.0,53.6,82,30.10,10.0,SW,6.9,-,N/A,,Overcast,220,2014-03-02 23:20:00
3:27 PM,59.0,53.6,82,30.10,10.0,SSW,9.2,-,N/A,,Mostly Cloudy,210,2014-03-02 23:27:00
3:35 PM,59.0,53.6,82,30.10,10.0,SSW,5.8,-,N/A,,Scattered Clouds,200,2014-03-02 23:35:00
3:49 PM,59.0,53.6,82,30.11,10.0,SW,8.1,-,N/A,,Mostly Cloudy,230,2014-03-02 23:49:00
3:54 PM,59.0,53.1,81,30.15,10.0,SW,8.1,-,N/A,,Scattered Clouds,230,2014-03-02 23:54:00
4:14 PM,59.0,53.6,82,30.12,10.0,SW,6.9,-,N/A,,Mostly Cloudy,220,2014-03-03 00:14:00
4:37 PM,57.2,53.6,88,30.12,10.0,SSW,8.1,-,N/A,,Scattered Clouds,210,2014-03-03 00:37:00
4:54 PM,57.9,53.1,84,30.16,10.0,SW,8.1,-,N/A,,Clear,220,2014-03-03 00:54:00
5:54 PM,57.0,52.0,83,30.17,10.0,West,4.6,-,N/A,,Clear,260,2014-03-03 01:54:00
6:54 PM,55.9,52.0,87,30.18,10.0,WSW,3.5,-,N/A,,Scattered Clouds,250,2014-03-03 02:54:00
7:54 PM,54.0,51.1,90,30.19,10.0,Calm,Calm,-,N/A,,Mostly Cloudy,0,2014-03-03 03:54:00
8:54 PM,52.0,48.9,89,30.19,10.0,East,3.5,-,N/A,,Clear,80,2014-03-03 04:54:00
9:54 PM,51.1,48.0,89,30.19,10.0,ESE,4.6,-,N/A,,Clear,120,2014-03-03 05:54:00
10:12 PM,51.8,48.2,88,30.17,10.0,SW,4.6,-,N/A,,Scattered Clouds,230,2014-03-03 06:12:00
10:54 PM,50.0,48.0,93,30.23,10.0,East,3.5,-,N/A,,Clear,90,2014-03-03 06:54:00
11:54 PM,48.9,46.9,93,30.23,10.0,Calm,Calm,-,N/A,,Scattered Clouds,0,2014-03-03 07:54:00